Location: Gleizolles
(44.4833°N, 6.7667°E)
Time: 06:17:54
(UTC+00:00)

Transit 4A - Pass Details

Date: 30 June 2024
Orbit: 870 x 973 km, 66.8° (Epoch: 14 July)

Event Time Altitude Azimuth Distance (km) Brightness Sun altitude
Rises 19:47:41 0° 204° (SSW) 3,458 10.7 -4.6°
Reaches altitude 10° 19:50:09 10° 203° (SSW) 2,516 10.0 -4.9°
Maximum altitude 19:55:56 75° 119° (ESE) 902 7.8 -5.7°
Drops below altitude 10° 20:01:45 10° 35° (NE) 2,529 10.3 -6.5°
Sets 20:04:15 0° 34° (NE) 3,477 11.0 -6.8°
